Location: Casaglia
(44.0333°N, 11.5167°E)
Time: 19:41:50
(UTC+00:00)

Landsat 5 - Pass Details

Date: 07 June 2020
Orbit: 528 x 655 km, 98.2° (Epoch: 11 July)

Event Time Altitude Azimuth Distance (km) Brightness Sun altitude
Rises 02:39:43 0° 168° (SSE) 2,966 6.7 -8.1°
Reaches altitude 10° 02:41:56 10° 169° (S) 2,057 5.9 -7.8°
Maximum altitude 02:46:27 81° 257° (WSW) 663 3.6 -7.2°
Drops below altitude 10° 02:50:55 10° 345° (NNW) 2,037 6.6 -6.6°
Sets 02:53:06 0° 346° (NNW) 2,935 7.4 -6.3°
